Location: NJAA Observatory
(40.6819°N, 74.8979°W)
Time: 09:59:58
(UTC-04:00)

Iridium 56 - Visible Passes

Search period start: 29 July 2016 00:00
Search period end: 08 August 2016 00:00
Orbit: 776 x 779 km, 86.4° (Epoch: 28 July)

Date Brightness Start Highest point End Pass type
(mag) Time Alt. Az. Time Alt. Az. Time Alt. Az.
29 Jul 6.0 00:34:37 10° N 00:38:51 59° N 00:38:51 59° N visible
30 Jul 6.3 00:01:14 10° N 00:05:21 43° NE 00:05:21 43° NE visible
30 Jul 7.5 01:43:00 10° NW 01:45:49 18° WNW 01:45:49 18° WNW visible
30 Jul 7.0 23:28:12 10° NNE 23:31:52 26° ENE 23:31:52 26° ENE visible
31 Jul 6.9 01:08:39 10° NNW 01:12:20 31° WNW 01:12:20 31° WNW visible
31 Jul 7.5 22:55:51 10° NE 22:58:23 15° ENE 22:58:23 15° ENE visible
01 Aug 6.2 00:34:46 10° N 00:38:51 51° NW 00:38:51 51° NW visible
02 Aug 6.0 00:01:12 10° N 00:05:22 54° NNE 00:05:22 54° NNE visible
02 Aug 7.9 01:44:10 10° NW 01:45:50 13° WNW 01:45:50 13° WNW visible
02 Aug 6.5 23:27:56 10° NNE 23:31:54 35° ENE 23:31:54 35° ENE visible
03 Aug 7.3 01:09:10 10° NNW 01:12:22 23° WNW 01:12:22 23° WNW visible
03 Aug 7.2 22:55:07 10° NNE 22:58:26 21° ENE 22:58:26 21° ENE visible
04 Aug 6.6 00:35:03 10° NNW 00:38:54 38° NW 00:38:54 38° NW visible
04 Aug 7.7 22:23:28 10° NE 22:24:58 11° ENE 22:24:58 11° ENE visible
05 Aug 6.0 00:01:17 10° N 00:05:26 57° NNW 00:05:26 57° NNW visible
05 Aug 6.1 23:27:50 10° N 23:31:59 47° NE 23:31:59 47° NE visible
06 Aug 7.7 01:09:57 10° NW 01:12:27 16° WNW 01:12:27 16° WNW visible
06 Aug 6.7 22:54:43 10° NNE 22:58:32 29° ENE 22:58:32 29° ENE visible
07 Aug 7.1 00:35:26 10° NNW 00:39:00 28° WNW 00:39:00 28° WNW visible
07 Aug 7.3 22:22:10 10° NE 22:25:05 17° ENE 22:25:05 17° ENE visible
